User: anonymous   Login
Location: Caltech
(34.1382°N, 118.1253°W)
Time: 00:28:38
(UTC-07:00)
Language:

Meteor 1-11 Rocket - Orbit

View from above orbital plane
View from above orbital plane
View from above satellite
View from above satellite

Ground track
Ground track

The orbit data is extracted from the following two-line orbital elements,

1  5918U 72022B   17145.58331804 +.00000159 +00000-0 +88258-4 0  9996
2  5918 081.2364 347.7417 0058991 030.9620 329.5003 14.05821659314555
Epoch (UTC): 25 May 2017 13:59:58
Eccentricity: 0.0058991
inclination: 81.2364°
perigee height: 831 km
apogee height: 916 km
right ascension of ascending node: 347.7417°
argument of perigee: 30.9620°
revolutions per day: 14.05821659
mean anomaly at epoch: 329.5003°
orbit number at epoch: 31455

The dashed part of the orbit path shows where the satellite is in the earth's shadow,  

DLR